Time,TemperatureF,DewpointF,PressureIn,WindDirection,WindDirectionDegrees,WindSpeedMPH,WindSpeedGustMPH,Humidity,HourlyPrecipIn,Conditions,Clouds,dailyrainin,SolarRadiationWatts/m^2,SoftwareType,DateUTC
2013-08-17 00:03:00,59.0,55.5,30.14,WSW,239,0.0,0.0,88,0.00,,SCT,0.00,0.00,VWS V14.01,2013-08-17 05:03:00,
2013-08-17 00:08:00,58.7,55.2,30.14,WSW,240,0.0,0.0,88,0.00,,SCT,0.00,0.00,VWS V14.01,2013-08-17 05:08:00,
2013-08-17 00:13:00,58.6,55.1,30.15,WSW,239,0.0,0.0,88,0.00,,SCT,0.00,0.00,VWS V14.01,2013-08-17 05:13:00,
2013-08-17 00:18:00,58.4,54.9,30.14,WSW,239,0.0,0.0,88,0.00,,SCT,0.00,0.00,VWS V14.01,2013-08-17 05:18:00,
2013-08-17 00:23:00,58.3,54.8,30.14,WSW,239,0.0,0.0,88,0.00,,SCT,0.00,0.00,VWS V14.01,2013-08-17 05:23:00,
2013-08-17 00:28:00,58.2,55.0,30.15,WSW,239,0.0,0.0,89,0.00,,SCT,0.00,0.00,VWS V14.01,2013-08-17 05:28:00,
2013-08-17 00:33:00,58.1,54.9,30.15,WSW,240,0.0,0.0,89,0.00,,SCT,0.00,0.00,VWS V14.01,2013-08-17 05:33:00,
2013-08-17 00:38:00,58.0,54.8,30.15,WSW,239,0.0,0.0,89,0.00,,SCT,0.00,0.00,VWS V14.01,2013-08-17 05:38:00,
2013-08-17 00:43:00,57.9,54.7,30.15,WSW,240,0.0,0.0,89,0.00,,SCT,0.00,0.00,VWS V14.01,2013-08-17 05:43:00,
2013-08-17 00:48:00,57.8,54.6,30.15,WSW,239,0.0,0.0,89,0.00,,SCT,0.00,0.00,VWS V14.01,2013-08-17 05:48:00,
2013-08-17 00:53:00,57.8,54.6,30.15,WSW,239,0.0,0.0,89,0.00,,SCT,0.00,0.00,VWS V14.01,2013-08-17 05:53:00,
2013-08-17 00:58:00,57.7,54.5,30.15,WSW,240,0.0,0.0,89,0.00,,SCT,0.00,0.00,VWS V14.01,2013-08-17 05:58:00,
2013-08-17 01:03:00,57.6,54.7,30.15,WSW,239,0.0,0.0,90,0.00,,SCT,0.00,0.00,VWS V14.01,2013-08-17 06:03:00,
2013-08-17 01:08:00,57.5,54.6,30.15,WSW,239,0.0,0.0,90,0.00,,SCT,0.00,0.00,VWS V14.01,2013-08-17 06:08:00,
2013-08-17 01:13:00,57.5,54.6,30.15,WSW,239,0.0,0.0,90,0.00,,SCT,0.00,0.00,VWS V14.01,2013-08-17 06:13:00,
2013-08-17 01:18:00,57.3,54.4,30.15,WSW,240,0.0,0.0,90,0.00,,SCT,0.00,0.00,VWS V14.01,2013-08-17 06:18:00,
2013-08-17 01:23:00,57.2,54.3,30.15,WSW,240,0.0,0.0,90,0.00,,SCT,0.00,0.00,VWS V14.01,2013-08-17 06:23:00,
2013-08-17 01:28:00,57.2,54.3,30.15,WSW,240,0.0,0.0,90,0.00,,SCT,0.00,0.00,VWS V14.01,2013-08-17 06:28:00,
2013-08-17 01:33:00,57.2,54.3,30.15,WSW,239,0.0,0.0,90,0.00,,SCT,0.00,0.00,VWS V14.01,2013-08-17 06:33:00,
2013-08-17 01:38:00,57.1,54.2,30.15,WSW,240,0.0,0.0,90,0.00,,SCT,0.00,0.00,VWS V14.01,2013-08-17 06:38:00,
2013-08-17 01:43:00,57.1,54.5,30.15,WSW,239,0.0,0.0,91,0.00,,SCT,0.00,0.00,VWS V14.01,2013-08-17 06:43:00,
2013-08-17 01:48:00,57.0,54.1,30.16,WSW,240,0.0,0.0,90,0.00,,SCT,0.00,0.00,VWS V14.01,2013-08-17 06:48:00,
2013-08-17 01:54:00,56.9,54.0,30.16,WSW,240,0.0,0.0,90,0.00,,SCT,0.00,0.00,VWS V14.01,2013-08-17 06:54:00,
2013-08-17 01:59:00,56.8,53.9,30.16,WSW,240,0.0,0.0,90,0.00,,SCT,0.00,0.00,VWS V14.01,2013-08-17 06:59:00,
2013-08-17 02:04:00,56.7,53.8,30.16,WSW,240,0.0,0.0,90,0.00,,SCT,0.00,0.00,VWS V14.01,2013-08-17 07:04:00,
2013-08-17 02:09:00,56.6,53.7,30.15,WSW,239,0.0,0.0,90,0.00,,SCT,0.00,0.00,VWS V14.01,2013-08-17 07:09:00,
2013-08-17 02:14:00,56.5,53.9,30.15,WSW,240,0.0,0.0,91,0.00,,SCT,0.00,0.00,VWS V14.01,2013-08-17 07:14:00,
2013-08-17 02:19:00,56.6,54.0,30.15,WSW,240,0.0,0.0,91,0.00,,SCT,0.00,0.00,VWS V14.01,2013-08-17 07:19:00,
2013-08-17 02:24:00,56.4,53.8,30.15,WSW,239,0.0,0.0,91,0.00,,SCT,0.00,0.00,VWS V14.01,2013-08-17 07:24:00,
2013-08-17 02:29:00,56.3,53.7,30.15,WSW,240,0.0,0.0,91,0.00,,SCT,0.00,0.00,VWS V14.01,2013-08-17 07:29:00,
2013-08-17 02:34:00,56.2,53.6,30.15,WSW,240,0.0,0.0,91,0.00,,SCT,0.00,0.00,VWS V14.01,2013-08-17 07:34:00,
2013-08-17 02:39:00,56.1,53.5,30.15,WSW,239,0.0,0.0,91,0.00,,SCT,0.00,0.00,VWS V14.01,2013-08-17 07:39:00,
2013-08-17 02:44:00,56.1,53.5,30.15,WSW,239,0.0,0.0,91,0.00,,SCT,0.00,0.00,VWS V14.01,2013-08-17 07:44:00,
2013-08-17 02:49:00,56.0,53.4,30.15,WSW,239,0.0,0.0,91,0.00,,SCT,0.00,0.00,VWS V14.01,2013-08-17 07:49:00,
2013-08-17 02:54:00,55.9,53.3,30.15,WSW,239,0.0,0.0,91,0.00,,SCT,0.00,0.00,VWS V14.01,2013-08-17 07:54:00,
2013-08-17 02:59:00,55.8,53.2,30.15,WSW,239,0.0,0.0,91,0.00,,SCT,0.00,0.00,VWS V14.01,2013-08-17 07:59:00,
2013-08-17 03:04:00,55.7,53.1,30.16,WSW,240,0.0,0.0,91,0.00,,SCT,0.00,0.00,VWS V14.01,2013-08-17 08:04:00,
2013-08-17 03:09:00,55.7,53.1,30.16,WSW,239,0.0,0.0,91,0.00,,SCT,0.00,0.00,VWS V14.01,2013-08-17 08:09:00,
2013-08-17 03:14:00,55.6,53.0,30.16,WSW,240,0.0,0.0,91,0.00,,SCT,0.00,0.00,VWS V14.01,2013-08-17 08:14:00,
2013-08-17 03:19:00,55.5,52.9,30.16,WSW,240,0.0,0.0,91,0.00,,SCT,0.00,0.00,VWS V14.01,2013-08-17 08:19:00,
2013-08-17 03:24:00,55.5,52.9,30.16,WSW,239,0.0,0.0,91,0.00,,SCT,0.00,0.00,VWS V14.01,2013-08-17 08:24:00,
2013-08-17 03:29:00,55.4,52.8,30.16,WSW,239,0.0,0.0,91,0.00,,SCT,0.00,0.00,VWS V14.01,2013-08-17 08:29:00,
2013-08-17 03:34:00,55.4,52.8,30.16,WSW,239,0.0,0.0,91,0.00,,SCT,0.00,0.00,VWS V14.01,2013-08-17 08:34:00,
2013-08-17 03:39:00,55.3,52.7,30.16,WSW,240,0.0,0.0,91,0.00,,SCT,0.00,0.00,VWS V14.01,2013-08-17 08:39:00,
2013-08-17 03:44:00,55.1,52.5,30.16,WSW,239,0.0,0.0,91,0.00,,SCT,0.00,0.00,VWS V14.01,2013-08-17 08:44:00,
2013-08-17 03:49:00,55.0,52.4,30.16,WSW,240,0.0,0.0,91,0.00,,SCT,0.00,0.00,VWS V14.01,2013-08-17 08:49:00,
2013-08-17 03:54:00,54.8,51.9,30.16,WSW,239,0.0,0.0,90,0.00,,SCT,0.00,0.00,VWS V14.01,2013-08-17 08:54:00,
2013-08-17 03:59:00,54.7,52.1,30.16,WSW,239,0.0,0.0,91,0.00,,SCT,0.00,0.00,VWS V14.01,2013-08-17 08:59:00,
2013-08-17 04:04:00,54.6,52.0,30.16,WSW,240,0.0,0.0,91,0.00,,SCT,0.00,0.00,VWS V14.01,2013-08-17 09:04:00,
2013-08-17 04:09:00,54.4,51.8,30.16,WSW,240,0.0,0.0,91,0.00,,SCT,0.00,0.00,VWS V14.01,2013-08-17 09:09:00,
2013-08-17 04:14:00,54.2,51.3,30.16,WSW,239,0.0,0.0,90,0.00,,SCT,0.00,0.00,VWS V14.01,2013-08-17 09:14:00,
2013-08-17 04:19:00,54.1,51.2,30.17,WSW,239,0.0,0.0,90,0.00,,SCT,0.00,0.00,VWS V14.01,2013-08-17 09:19:00,
2013-08-17 04:24:00,53.9,51.3,30.16,WSW,239,0.0,0.0,91,0.00,,SCT,0.00,0.00,VWS V14.01,2013-08-17 09:24:00,
2013-08-17 04:29:00,53.7,51.1,30.17,WSW,240,0.0,0.0,91,0.00,,SCT,0.00,0.00,VWS V14.01,2013-08-17 09:29:00,
2013-08-17 04:34:00,53.6,50.7,30.17,WSW,240,0.0,0.0,90,0.00,,SCT,0.00,0.00,VWS V14.01,2013-08-17 09:34:00,
2013-08-17 04:39:00,53.5,50.9,30.17,WSW,240,0.0,0.0,91,0.00,,SCT,0.00,0.00,VWS V14.01,2013-08-17 09:39:00,
2013-08-17 04:44:00,53.5,50.9,30.17,WSW,239,0.0,0.0,91,0.00,,SCT,0.00,0.00,VWS V14.01,2013-08-17 09:44:00,
2013-08-17 04:49:00,53.4,50.8,30.17,WSW,239,0.0,0.0,91,0.00,,SCT,0.00,0.00,VWS V14.01,2013-08-17 09:49:00,
2013-08-17 04:54:00,53.3,50.7,30.17,WSW,239,0.0,0.0,91,0.00,,SCT,0.00,0.00,VWS V14.01,2013-08-17 09:54:00,
2013-08-17 04:59:00,53.3,50.7,30.17,WSW,240,0.0,0.0,91,0.00,,SCT,0.00,0.00,VWS V14.01,2013-08-17 09:59:00,
2013-08-17 05:04:00,53.2,50.7,30.17,WSW,240,0.0,0.0,91,0.00,,SCT,0.00,0.00,VWS V14.01,2013-08-17 10:04:00,
2013-08-17 05:09:00,53.0,50.5,30.17,WSW,239,0.0,0.0,91,0.00,,SCT,0.00,0.00,VWS V14.01,2013-08-17 10:09:00,
2013-08-17 05:14:00,53.0,50.5,30.17,WSW,239,0.0,0.0,91,0.00,,SCT,0.00,0.00,VWS V14.01,2013-08-17 10:14:00,
2013-08-17 05:19:00,52.9,50.3,30.17,WSW,239,0.0,0.0,91,0.00,,SCT,0.00,0.00,VWS V14.01,2013-08-17 10:19:00,
2013-08-17 05:24:00,52.9,50.3,30.17,WSW,240,0.0,0.0,91,0.00,,SCT,0.00,0.00,VWS V14.01,2013-08-17 10:24:00,
2013-08-17 05:29:00,52.8,50.2,30.17,WSW,240,0.0,0.0,91,0.00,,SCT,0.00,0.00,VWS V14.01,2013-08-17 10:29:00,
2013-08-17 05:34:00,52.8,50.2,30.17,WSW,240,0.0,0.0,91,0.00,,SCT,0.00,0.00,VWS V14.01,2013-08-17 10:34:00,
2013-08-17 05:39:00,52.8,50.5,30.17,WSW,239,0.0,0.0,92,0.00,,SCT,0.00,0.00,VWS V14.01,2013-08-17 10:39:00,
2013-08-17 05:44:00,52.8,50.5,30.17,WSW,240,0.0,0.0,92,0.00,,SCT,0.00,0.00,VWS V14.01,2013-08-17 10:44:00,
2013-08-17 05:49:00,52.7,50.5,30.18,WSW,239,0.0,0.0,92,0.00,,SCT,0.00,0.00,VWS V14.01,2013-08-17 10:49:00,
2013-08-17 05:55:00,52.7,50.5,30.18,WSW,239,0.0,0.0,92,0.00,,SCT,0.00,0.00,VWS V14.01,2013-08-17 10:55:00,
2013-08-17 06:00:00,52.6,50.0,30.18,WSW,239,0.0,0.0,91,0.00,,SCT,0.00,0.00,VWS V14.01,2013-08-17 11:00:00,
2013-08-17 06:05:00,52.6,50.0,30.18,WSW,239,0.0,0.0,91,0.00,,SCT,0.00,0.00,VWS V14.01,2013-08-17 11:05:00,
2013-08-17 06:10:00,52.5,50.0,30.18,WSW,239,0.0,0.0,91,0.00,,SCT,0.00,0.00,VWS V14.01,2013-08-17 11:10:00,
2013-08-17 06:15:00,52.4,49.8,30.18,WSW,240,0.0,0.0,91,0.00,,SCT,0.00,5.00,VWS V14.01,2013-08-17 11:15:00,
2013-08-17 06:20:00,52.4,50.2,30.18,WSW,239,0.0,0.0,92,0.00,,SCT,0.00,7.00,VWS V14.01,2013-08-17 11:20:00,
2013-08-17 06:25:00,52.5,50.2,30.18,WSW,239,0.0,0.0,92,0.00,,SCT,0.00,9.00,VWS V14.01,2013-08-17 11:25:00,
2013-08-17 06:30:00,52.6,50.3,30.18,WSW,239,0.0,0.0,92,0.00,,SCT,0.00,11.00,VWS V14.01,2013-08-17 11:30:00,
2013-08-17 06:35:00,52.7,50.5,30.18,WSW,239,0.0,0.0,92,0.00,,SCT,0.00,12.00,VWS V14.01,2013-08-17 11:35:00,
2013-08-17 06:40:00,52.6,50.3,30.18,WSW,239,0.0,0.0,92,0.00,,SCT,0.00,14.00,VWS V14.01,2013-08-17 11:40:00,
2013-08-17 06:45:00,52.7,50.5,30.18,WSW,239,0.0,0.0,92,0.00,,SCT,0.00,16.00,VWS V14.01,2013-08-17 11:45:00,
2013-08-17 06:50:00,52.7,50.5,30.18,WSW,240,0.0,0.0,92,0.00,,SCT,0.00,16.00,VWS V14.01,2013-08-17 11:50:00,
2013-08-17 06:55:00,52.8,50.5,30.18,WSW,239,0.0,0.0,92,0.00,,SCT,0.00,18.00,VWS V14.01,2013-08-17 11:55:00,
2013-08-17 07:00:00,52.8,50.5,30.18,WSW,240,0.0,0.0,92,0.00,,SCT,0.00,19.00,VWS V14.01,2013-08-17 12:00:00,
2013-08-17 07:05:00,52.8,50.5,30.19,WSW,240,0.0,0.0,92,0.00,,SCT,0.00,21.00,VWS V14.01,2013-08-17 12:05:00,
2013-08-17 07:06:00,52.9,50.6,30.18,WSW,240,0.0,0.0,92,0.00,,SCT,0.00,21.00,VWS V14.01,2013-08-17 12:06:00,
2013-08-17 07:11:00,53.0,51.0,30.19,WSW,239,0.0,0.0,93,0.00,,SCT,0.00,21.00,VWS V14.01,2013-08-17 12:11:00,
2013-08-17 07:16:00,53.1,51.1,30.18,WSW,239,0.0,0.0,93,0.00,,SCT,0.00,23.00,VWS V14.01,2013-08-17 12:16:00,
2013-08-17 07:21:00,53.2,51.2,30.19,WSW,239,0.0,0.0,93,0.00,,SCT,0.00,25.00,VWS V14.01,2013-08-17 12:21:00,
2013-08-17 07:26:00,53.3,51.3,30.18,WSW,239,0.0,0.0,93,0.00,,SCT,0.00,25.00,VWS V14.01,2013-08-17 12:26:00,
2013-08-17 07:31:00,53.5,51.5,30.18,WSW,240,0.0,0.0,93,0.00,,SCT,0.00,26.00,VWS V14.01,2013-08-17 12:31:00,
2013-08-17 07:36:00,53.7,51.7,30.19,WSW,239,0.0,0.0,93,0.00,,SCT,0.00,28.00,VWS V14.01,2013-08-17 12:36:00,
2013-08-17 07:41:00,53.9,51.9,30.19,WSW,239,0.0,0.0,93,0.00,,SCT,0.00,28.00,VWS V14.01,2013-08-17 12:41:00,
2013-08-17 07:46:00,54.1,52.1,30.19,WSW,239,0.0,0.0,93,0.00,,SCT,0.00,30.00,VWS V14.01,2013-08-17 12:46:00,
2013-08-17 07:52:00,54.3,52.3,30.19,WSW,239,0.0,0.0,93,0.00,,SCT,0.00,32.00,VWS V14.01,2013-08-17 12:52:00,
2013-08-17 07:57:00,54.6,52.9,30.19,WSW,239,0.0,0.0,94,0.00,,SCT,0.00,35.00,VWS V14.01,2013-08-17 12:57:00,
2013-08-17 08:02:00,55.0,53.3,30.18,WSW,239,0.0,0.0,94,0.00,,SCT,0.00,39.00,VWS V14.01,2013-08-17 13:02:00,
2013-08-17 08:07:00,55.6,53.9,30.19,WSW,239,0.0,0.0,94,0.00,,SCT,0.00,40.00,VWS V14.01,2013-08-17 13:07:00,
2013-08-17 08:12:00,56.3,54.6,30.19,SW,235,0.0,0.0,94,0.00,,SCT,0.00,42.00,VWS V14.01,2013-08-17 13:12:00,
2013-08-17 08:17:00,56.8,55.1,30.18,SW,235,0.0,0.0,94,0.00,,SCT,0.00,42.00,VWS V14.01,2013-08-17 13:17:00,
2013-08-17 08:22:00,57.2,55.5,30.19,SW,232,0.0,0.0,94,0.00,,SCT,0.00,42.00,VWS V14.01,2013-08-17 13:22:00,
2013-08-17 08:27:00,57.5,55.8,30.18,SW,232,0.0,3.0,94,0.00,,SCT,0.00,47.00,VWS V14.01,2013-08-17 13:27:00,
2013-08-17 08:32:00,57.8,56.1,30.18,SW,232,0.0,0.0,94,0.00,,SCT,0.00,42.00,VWS V14.01,2013-08-17 13:32:00,
2013-08-17 08:37:00,58.2,56.5,30.18,SW,232,0.0,0.0,94,0.00,,SCT,0.00,46.00,VWS V14.01,2013-08-17 13:37:00,
2013-08-17 08:42:00,58.7,57.0,30.18,SW,232,0.0,0.0,94,0.00,,SCT,0.00,47.00,VWS V14.01,2013-08-17 13:42:00,
2013-08-17 08:47:00,59.0,57.3,30.18,SW,232,0.0,0.0,94,0.00,,SCT,0.00,47.00,VWS V14.01,2013-08-17 13:47:00,
2013-08-17 08:52:00,59.4,57.7,30.18,SW,232,0.0,0.0,94,0.00,,SCT,0.00,171.00,VWS V14.01,2013-08-17 13:52:00,
2013-08-17 08:57:00,60.1,58.4,30.18,SW,234,3.0,4.0,94,0.00,,SCT,0.00,373.00,VWS V14.01,2013-08-17 13:57:00,
2013-08-17 09:02:00,60.9,58.9,30.18,SW,234,0.0,1.0,93,0.00,,SCT,0.00,388.00,VWS V14.01,2013-08-17 14:02:00,
2013-08-17 09:07:00,61.7,59.4,30.18,SW,234,0.0,2.0,92,0.00,,SCT,0.00,401.00,VWS V14.01,2013-08-17 14:07:00,
2013-08-17 09:12:00,62.4,59.4,30.18,WSW,240,2.0,2.0,90,0.00,,SCT,0.00,418.00,VWS V14.01,2013-08-17 14:12:00,
2013-08-17 09:17:00,63.3,59.4,30.18,WSW,242,0.0,2.0,87,0.00,,SCT,0.00,439.00,VWS V14.01,2013-08-17 14:17:00,
2013-08-17 09:22:00,64.3,59.0,30.18,WSW,252,3.0,5.0,83,0.00,,SCT,0.00,466.00,VWS V14.01,2013-08-17 14:22:00,
2013-08-17 09:27:00,65.2,59.2,30.18,WSW,241,3.0,5.0,81,0.00,,SCT,0.00,496.00,VWS V14.01,2013-08-17 14:27:00,
2013-08-17 09:32:00,66.1,59.8,30.18,WSW,242,1.0,4.0,80,0.00,,SCT,0.00,510.00,VWS V14.01,2013-08-17 14:32:00,
2013-08-17 09:37:00,66.8,59.7,30.18,WSW,244,0.0,0.0,78,0.00,,SCT,0.00,522.00,VWS V14.01,2013-08-17 14:37:00,
2013-08-17 09:42:00,67.4,60.0,30.18,WSW,242,3.0,5.0,77,0.00,,SCT,0.00,540.00,VWS V14.01,2013-08-17 14:42:00,
2013-08-17 09:47:00,68.0,59.0,30.18,WSW,238,1.0,6.0,73,0.00,,SCT,0.00,552.00,VWS V14.01,2013-08-17 14:47:00,
2013-08-17 09:52:00,68.6,59.2,30.18,WSW,256,6.0,7.0,72,0.00,,SCT,0.00,566.00,VWS V14.01,2013-08-17 14:52:00,
2013-08-17 09:57:00,69.1,58.9,30.18,WSW,246,2.0,6.0,70,0.00,,SCT,0.00,580.00,VWS V14.01,2013-08-17 14:57:00,
2013-08-17 10:02:00,69.5,59.3,30.18,SW,224,8.0,8.0,70,0.00,,SCT,0.00,592.00,VWS V14.01,2013-08-17 15:02:00,
2013-08-17 10:07:00,69.9,60.1,30.18,WSW,238,3.0,7.0,71,0.00,,SCT,0.00,608.00,VWS V14.01,2013-08-17 15:07:00,
2013-08-17 10:12:00,70.3,59.2,30.18,SW,235,8.0,12.0,68,0.00,,SCT,0.00,619.00,VWS V14.01,2013-08-17 15:12:00,
2013-08-17 10:17:00,70.5,58.6,30.18,WSW,248,7.0,10.0,66,0.00,,SCT,0.00,629.00,VWS V14.01,2013-08-17 15:17:00,
2013-08-17 10:22:00,70.7,58.8,30.18,WSW,241,8.0,9.0,66,0.00,,SCT,0.00,631.00,VWS V14.01,2013-08-17 15:22:00,
2013-08-17 10:27:00,71.0,58.2,30.18,WSW,246,11.0,12.0,64,0.00,,SCT,0.00,656.00,VWS V14.01,2013-08-17 15:27:00,
2013-08-17 10:32:00,71.2,58.4,30.18,WSW,252,6.0,9.0,64,0.00,,SCT,0.00,659.00,VWS V14.01,2013-08-17 15:32:00,
2013-08-17 10:37:00,71.3,57.6,30.18,WSW,250,8.0,13.0,62,0.00,,SCT,0.00,679.00,VWS V14.01,2013-08-17 15:37:00,
2013-08-17 10:42:00,71.3,58.5,30.18,West,259,5.0,11.0,64,0.00,,SCT,0.00,686.00,VWS V14.01,2013-08-17 15:42:00,
2013-08-17 10:47:00,71.6,58.8,30.18,SW,232,10.0,11.0,64,0.00,,SCT,0.00,705.00,VWS V14.01,2013-08-17 15:47:00,
2013-08-17 10:52:00,71.9,59.1,30.18,WSW,242,12.0,13.0,64,0.00,,SCT,0.00,717.00,VWS V14.01,2013-08-17 15:52:00,
2013-08-17 10:57:00,72.1,58.4,30.18,WSW,250,6.0,10.0,62,0.00,,SCT,0.00,724.00,VWS V14.01,2013-08-17 15:57:00,
2013-08-17 11:02:00,72.2,58.5,30.18,SW,234,4.0,7.0,62,0.00,,SCT,0.00,738.00,VWS V14.01,2013-08-17 16:02:00,
2013-08-17 11:08:00,72.5,59.2,30.17,WSW,250,5.0,7.0,63,0.00,,SCT,0.00,744.00,VWS V14.01,2013-08-17 16:08:00,
2013-08-17 11:13:00,72.6,58.4,30.18,WSW,251,12.0,12.0,61,0.00,,SCT,0.00,765.00,VWS V14.01,2013-08-17 16:13:00,
2013-08-17 11:18:00,72.6,58.4,30.17,WSW,254,3.0,9.0,61,0.00,,SCT,0.00,770.00,VWS V14.01,2013-08-17 16:18:00,
2013-08-17 11:23:00,72.8,58.6,30.17,WSW,238,9.0,10.0,61,0.00,,SCT,0.00,784.00,VWS V14.01,2013-08-17 16:23:00,
2013-08-17 11:28:00,73.1,58.4,30.17,WSW,255,7.0,10.0,60,0.00,,SCT,0.00,833.00,VWS V14.01,2013-08-17 16:28:00,
2013-08-17 11:33:00,73.3,57.7,30.17,WSW,248,8.0,8.0,58,0.00,,SCT,0.00,817.00,VWS V14.01,2013-08-17 16:33:00,
2013-08-17 11:38:00,73.5,57.8,30.17,West,262,7.0,9.0,58,0.00,,SCT,0.00,810.00,VWS V14.01,2013-08-17 16:38:00,
2013-08-17 11:43:00,73.7,58.0,30.17,WSW,251,12.0,14.0,58,0.00,,SCT,0.00,872.00,VWS V14.01,2013-08-17 16:43:00,
2013-08-17 11:48:00,73.7,58.0,30.17,SW,232,6.0,12.0,58,0.00,,SCT,0.00,831.00,VWS V14.01,2013-08-17 16:48:00,
2013-08-17 11:53:00,73.6,57.4,30.17,WSW,252,8.0,13.0,57,0.00,,SCT,0.00,867.00,VWS V14.01,2013-08-17 16:53:00,
2013-08-17 11:58:00,73.3,58.6,30.17,WSW,254,9.0,12.0,60,0.00,,SCT,0.00,169.00,VWS V14.01,2013-08-17 16:58:00,
2013-08-17 12:03:00,73.2,59.0,30.17,West,271,13.0,13.0,61,0.00,,SCT,0.00,925.00,VWS V14.01,2013-08-17 17:03:00,
2013-08-17 12:08:00,73.2,57.5,30.16,West,264,9.0,18.0,58,0.00,,SCT,0.00,863.00,VWS V14.01,2013-08-17 17:08:00,
2013-08-17 12:13:00,73.4,58.2,30.16,West,265,10.0,14.0,59,0.00,,SCT,0.00,854.00,VWS V14.01,2013-08-17 17:13:00,
2013-08-17 12:18:00,73.5,57.8,30.16,WSW,252,6.0,10.0,58,0.00,,SCT,0.00,860.00,VWS V14.01,2013-08-17 17:18:00,
2013-08-17 12:23:00,73.9,56.7,30.16,WSW,240,8.0,9.0,55,0.00,,SCT,0.00,861.00,VWS V14.01,2013-08-17 17:23:00,
2013-08-17 12:28:00,74.1,58.4,30.16,West,266,12.0,13.0,58,0.00,,SCT,0.00,856.00,VWS V14.01,2013-08-17 17:28:00,
2013-08-17 12:33:00,74.3,58.1,30.16,SW,234,11.0,13.0,57,0.00,,SCT,0.00,874.00,VWS V14.01,2013-08-17 17:33:00,
2013-08-17 12:38:00,74.5,57.8,30.15,SSW,213,3.0,6.0,56,0.00,,SCT,0.00,874.00,VWS V14.01,2013-08-17 17:38:00,
2013-08-17 12:43:00,74.8,57.6,30.15,WSW,254,12.0,15.0,55,0.00,,SCT,0.00,870.00,VWS V14.01,2013-08-17 17:43:00,
2013-08-17 12:48:00,74.8,56.5,30.15,West,263,14.0,19.0,53,0.00,,SCT,0.00,886.00,VWS V14.01,2013-08-17 17:48:00,
2013-08-17 12:53:00,74.5,57.8,30.15,WSW,246,13.0,16.0,56,0.00,,SCT,0.00,870.00,VWS V14.01,2013-08-17 17:53:00,
2013-08-17 12:58:00,74.4,55.7,30.15,SW,236,9.0,15.0,52,0.00,,SCT,0.00,888.00,VWS V14.01,2013-08-17 17:58:00,
2013-08-17 13:03:00,74.5,57.3,30.15,WSW,250,6.0,17.0,55,0.00,,SCT,0.00,898.00,VWS V14.01,2013-08-17 18:03:00,
2013-08-17 13:08:00,74.7,58.5,30.15,WSW,241,7.0,10.0,57,0.00,,SCT,0.00,926.00,VWS V14.01,2013-08-17 18:08:00,
2013-08-17 13:13:00,74.9,58.7,30.15,WSW,255,12.0,14.0,57,0.00,,SCT,0.00,893.00,VWS V14.01,2013-08-17 18:13:00,
2013-08-17 13:18:00,74.9,58.7,30.14,West,271,8.0,16.0,57,0.00,,SCT,0.00,889.00,VWS V14.01,2013-08-17 18:18:00,
2013-08-17 13:23:00,74.9,57.2,30.14,WSW,254,8.0,11.0,54,0.00,,SCT,0.00,875.00,VWS V14.01,2013-08-17 18:23:00,
2013-08-17 13:28:00,75.0,57.8,30.14,WSW,244,9.0,13.0,55,0.00,,SCT,0.00,923.00,VWS V14.01,2013-08-17 18:28:00,
2013-08-17 13:33:00,75.0,57.2,30.14,SW,220,4.0,12.0,54,0.00,,SCT,0.00,904.00,VWS V14.01,2013-08-17 18:33:00,
2013-08-17 13:38:00,75.1,56.3,30.14,WSW,238,9.0,14.0,52,0.00,,SCT,0.00,884.00,VWS V14.01,2013-08-17 18:38:00,
2013-08-17 13:43:00,75.4,58.1,30.13,WSW,237,12.0,13.0,55,0.00,,SCT,0.00,886.00,VWS V14.01,2013-08-17 18:43:00,
2013-08-17 13:48:00,75.6,57.3,30.13,SW,236,16.0,16.0,53,0.00,,SCT,0.00,875.00,VWS V14.01,2013-08-17 18:48:00,
2013-08-17 13:53:00,75.7,57.4,30.13,WSW,249,8.0,14.0,53,0.00,,SCT,0.00,872.00,VWS V14.01,2013-08-17 18:53:00,
2013-08-17 13:58:00,75.9,56.5,30.13,WSW,245,10.0,17.0,51,0.00,,SCT,0.00,872.00,VWS V14.01,2013-08-17 18:58:00,
2013-08-17 14:03:00,76.0,58.2,30.13,SW,228,10.0,10.0,54,0.00,,SCT,0.00,865.00,VWS V14.01,2013-08-17 19:03:00,
2013-08-17 14:08:00,76.2,56.8,30.13,SW,233,10.0,13.0,51,0.00,,SCT,0.00,863.00,VWS V14.01,2013-08-17 19:08:00,
2013-08-17 14:13:00,76.3,58.5,30.13,WSW,238,10.0,13.0,54,0.00,,SCT,0.00,856.00,VWS V14.01,2013-08-17 19:13:00,
2013-08-17 14:18:00,76.4,56.4,30.13,WSW,252,3.0,11.0,50,0.00,,SCT,0.00,854.00,VWS V14.01,2013-08-17 19:18:00,
2013-08-17 14:23:00,76.5,57.6,30.13,West,269,14.0,14.0,52,0.00,,SCT,0.00,849.00,VWS V14.01,2013-08-17 19:23:00,
2013-08-17 14:28:00,76.4,57.0,30.13,SSW,213,4.0,13.0,51,0.00,,SCT,0.00,840.00,VWS V14.01,2013-08-17 19:28:00,
2013-08-17 14:33:00,76.6,58.2,30.12,WSW,257,9.0,13.0,53,0.00,,SCT,0.00,854.00,VWS V14.01,2013-08-17 19:33:00,
2013-08-17 14:38:00,76.6,58.2,30.13,WSW,254,9.0,16.0,53,0.00,,SCT,0.00,823.00,VWS V14.01,2013-08-17 19:38:00,
2013-08-17 14:43:00,76.5,58.6,30.13,WSW,253,11.0,12.0,54,0.00,,SCT,0.00,826.00,VWS V14.01,2013-08-17 19:43:00,
2013-08-17 14:48:00,76.5,58.1,30.12,SW,236,8.0,11.0,53,0.00,,SCT,0.00,831.00,VWS V14.01,2013-08-17 19:48:00,
2013-08-17 14:53:00,76.5,58.1,30.12,WSW,249,9.0,13.0,53,0.00,,SCT,0.00,812.00,VWS V14.01,2013-08-17 19:53:00,
2013-08-17 14:58:00,76.6,57.1,30.12,West,280,7.0,20.0,51,0.00,,SCT,0.00,809.00,VWS V14.01,2013-08-17 19:58:00,
2013-08-17 15:03:00,76.6,57.1,30.12,South,178,7.0,7.0,51,0.00,,SCT,0.00,805.00,VWS V14.01,2013-08-17 20:03:00,
2013-08-17 15:08:00,76.8,58.4,30.12,WSW,251,10.0,17.0,53,0.00,,SCT,0.00,786.00,VWS V14.01,2013-08-17 20:08:00,
2013-08-17 15:13:00,76.6,58.2,30.12,WSW,247,9.0,17.0,53,0.00,,SCT,0.00,779.00,VWS V14.01,2013-08-17 20:13:00,
2013-08-17 15:18:00,76.6,57.1,30.11,WSW,245,10.0,10.0,51,0.00,,SCT,0.00,766.00,VWS V14.01,2013-08-17 20:18:00,
2013-08-17 15:24:00,76.6,58.2,30.11,WSW,242,8.0,12.0,53,0.00,,SCT,0.00,728.00,VWS V14.01,2013-08-17 20:24:00,
2013-08-17 15:29:00,76.7,58.3,30.11,WNW,283,10.0,12.0,53,0.00,,SCT,0.00,749.00,VWS V14.01,2013-08-17 20:29:00,
2013-08-17 15:34:00,76.7,58.3,30.11,West,263,10.0,16.0,53,0.00,,SCT,0.00,747.00,VWS V14.01,2013-08-17 20:34:00,
2013-08-17 15:39:00,76.7,56.7,30.11,SW,236,13.0,16.0,50,0.00,,SCT,0.00,749.00,VWS V14.01,2013-08-17 20:39:00,
2013-08-17 15:44:00,76.7,58.3,30.11,WSW,251,10.0,14.0,53,0.00,,SCT,0.00,738.00,VWS V14.01,2013-08-17 20:44:00,
2013-08-17 15:49:00,76.7,58.8,30.11,West,275,10.0,16.0,54,0.00,,SCT,0.00,673.00,VWS V14.01,2013-08-17 20:49:00,
2013-08-17 15:54:00,76.7,58.8,30.11,WSW,240,9.0,17.0,54,0.00,,SCT,0.00,647.00,VWS V14.01,2013-08-17 20:54:00,
2013-08-17 15:59:00,76.7,58.3,30.11,WSW,249,10.0,16.0,53,0.00,,SCT,0.00,668.00,VWS V14.01,2013-08-17 20:59:00,
2013-08-17 16:04:00,76.7,58.3,30.11,WSW,246,11.0,13.0,53,0.00,,SCT,0.00,689.00,VWS V14.01,2013-08-17 21:04:00,
2013-08-17 16:09:00,76.8,58.9,30.11,SW,234,5.0,11.0,54,0.00,,SCT,0.00,640.00,VWS V14.01,2013-08-17 21:09:00,
2013-08-17 16:14:00,77.0,59.1,30.10,WSW,239,13.0,13.0,54,0.00,,SCT,0.00,656.00,VWS V14.01,2013-08-17 21:14:00,
2013-08-17 16:19:00,77.1,59.2,30.10,West,264,9.0,11.0,54,0.00,,SCT,0.00,656.00,VWS V14.01,2013-08-17 21:19:00,
2013-08-17 16:24:00,77.2,59.3,30.10,SW,225,3.0,11.0,54,0.00,,SCT,0.00,635.00,VWS V14.01,2013-08-17 21:24:00,
2013-08-17 16:29:00,77.2,58.2,30.10,West,269,10.0,10.0,52,0.00,,SCT,0.00,638.00,VWS V14.01,2013-08-17 21:29:00,
2013-08-17 16:34:00,77.3,58.3,30.10,WSW,241,10.0,11.0,52,0.00,,SCT,0.00,615.00,VWS V14.01,2013-08-17 21:34:00,
2013-08-17 16:39:00,77.4,59.5,30.09,WSW,248,8.0,13.0,54,0.00,,SCT,0.00,594.00,VWS V14.01,2013-08-17 21:39:00,
2013-08-17 16:44:00,77.4,57.9,30.10,SW,233,12.0,12.0,51,0.00,,SCT,0.00,582.00,VWS V14.01,2013-08-17 21:44:00,
2013-08-17 16:49:00,77.3,58.3,30.10,WSW,248,11.0,14.0,52,0.01,,SCT,0.01,573.00,VWS V14.01,2013-08-17 21:49:00,
2013-08-17 16:54:00,77.3,59.4,30.09,WSW,237,5.0,10.0,54,0.01,,SCT,0.01,570.00,VWS V14.01,2013-08-17 21:54:00,
2013-08-17 16:59:00,77.3,58.8,30.09,WSW,243,13.0,18.0,53,0.01,,SCT,0.01,554.00,VWS V14.01,2013-08-17 21:59:00,
2013-08-17 17:04:00,77.1,58.7,30.09,SW,229,12.0,16.0,53,0.01,,SCT,0.01,540.00,VWS V14.01,2013-08-17 22:04:00,
2013-08-17 17:09:00,76.9,58.0,30.09,WSW,237,8.0,12.0,52,0.01,,SCT,0.01,527.00,VWS V14.01,2013-08-17 22:09:00,
2013-08-17 17:14:00,77.0,58.0,30.09,WSW,248,2.0,12.0,52,0.01,,SCT,0.01,512.00,VWS V14.01,2013-08-17 22:14:00,
2013-08-17 17:19:00,77.2,59.8,30.09,WSW,256,12.0,12.0,55,0.01,,SCT,0.01,504.00,VWS V14.01,2013-08-17 22:19:00,
2013-08-17 17:24:00,77.3,58.8,30.09,SSW,211,3.0,9.0,53,0.01,,SCT,0.01,494.00,VWS V14.01,2013-08-17 22:24:00,
2013-08-17 17:29:00,77.5,59.6,30.09,WSW,240,7.0,8.0,54,0.01,,SCT,0.01,480.00,VWS V14.01,2013-08-17 22:29:00,
2013-08-17 17:34:00,77.6,59.1,30.09,WSW,246,12.0,13.0,53,0.01,,SCT,0.01,462.00,VWS V14.01,2013-08-17 22:34:00,
2013-08-17 17:39:00,77.5,59.6,30.08,WSW,257,6.0,17.0,54,0.01,,SCT,0.01,448.00,VWS V14.01,2013-08-17 22:39:00,
2013-08-17 17:44:00,77.3,59.4,30.09,SW,234,10.0,13.0,54,0.01,,SCT,0.01,429.00,VWS V14.01,2013-08-17 22:44:00,
2013-08-17 17:49:00,77.3,57.8,30.09,West,271,8.0,11.0,51,0.01,,SCT,0.01,411.00,VWS V14.01,2013-08-17 22:49:00,
2013-08-17 17:54:00,77.2,59.3,30.09,WSW,246,7.0,10.0,54,0.00,,SCT,0.01,390.00,VWS V14.01,2013-08-17 22:54:00,
2013-08-17 17:59:00,77.2,59.3,30.09,WSW,246,7.0,17.0,54,0.00,,SCT,0.01,369.00,VWS V14.01,2013-08-17 22:59:00,
2013-08-17 18:04:00,77.1,59.2,30.08,WSW,246,8.0,11.0,54,0.00,,SCT,0.01,353.00,VWS V14.01,2013-08-17 23:04:00,
2013-08-17 18:09:00,77.2,59.3,30.08,West,262,3.0,9.0,54,0.00,,SCT,0.01,334.00,VWS V14.01,2013-08-17 23:09:00,
2013-08-17 18:14:00,77.1,58.7,30.08,WSW,249,9.0,12.0,53,0.00,,SCT,0.01,320.00,VWS V14.01,2013-08-17 23:14:00,
2013-08-17 18:19:00,77.1,59.2,30.08,WSW,239,9.0,13.0,54,0.00,,SCT,0.01,302.00,VWS V14.01,2013-08-17 23:19:00,
2013-08-17 18:24:00,76.9,58.0,30.09,WSW,254,12.0,17.0,52,0.00,,SCT,0.01,285.00,VWS V14.01,2013-08-17 23:24:00,
2013-08-17 18:29:00,76.8,58.4,30.08,WSW,247,9.0,13.0,53,0.00,,SCT,0.01,269.00,VWS V14.01,2013-08-17 23:29:00,
2013-08-17 18:34:00,76.7,59.3,30.08,WSW,237,7.0,9.0,55,0.00,,SCT,0.01,253.00,VWS V14.01,2013-08-17 23:34:00,
2013-08-17 18:39:00,76.5,59.7,30.09,WSW,251,8.0,9.0,56,0.00,,SCT,0.01,234.00,VWS V14.01,2013-08-17 23:39:00,
2013-08-17 18:44:00,76.5,59.2,30.08,WSW,246,5.0,8.0,55,0.00,,SCT,0.01,218.00,VWS V14.01,2013-08-17 23:44:00,
2013-08-17 18:49:00,76.4,59.1,30.08,WSW,245,5.0,9.0,55,0.00,,SCT,0.01,199.00,VWS V14.01,2013-08-17 23:49:00,
2013-08-17 18:54:00,76.4,59.1,30.08,WSW,243,6.0,10.0,55,0.00,,SCT,0.01,162.00,VWS V14.01,2013-08-17 23:54:00,
2013-08-17 18:59:00,76.2,58.4,30.08,WSW,250,6.0,13.0,54,0.00,,SCT,0.01,132.00,VWS V14.01,2013-08-17 23:59:00,
2013-08-17 19:04:00,76.1,59.3,30.08,WSW,251,7.0,8.0,56,0.00,,SCT,0.01,141.00,VWS V14.01,2013-08-18 00:04:00,
2013-08-17 19:09:00,76.0,59.7,30.08,SW,232,7.0,8.0,57,0.00,,SCT,0.01,121.00,VWS V14.01,2013-08-18 00:09:00,
2013-08-17 19:14:00,75.8,58.0,30.08,WSW,238,7.0,8.0,54,0.00,,SCT,0.01,102.00,VWS V14.01,2013-08-18 00:14:00,
2013-08-17 19:19:00,75.6,57.8,30.08,WSW,245,4.0,8.0,54,0.00,,SCT,0.01,83.00,VWS V14.01,2013-08-18 00:19:00,
2013-08-17 19:24:00,75.4,59.6,30.08,SW,221,4.0,6.0,58,0.00,,SCT,0.01,69.00,VWS V14.01,2013-08-18 00:24:00,
2013-08-17 19:29:00,75.1,57.8,30.07,WSW,248,3.0,7.0,55,0.00,,SCT,0.01,47.00,VWS V14.01,2013-08-18 00:29:00,
2013-08-17 19:34:00,74.7,58.5,30.08,SW,231,5.0,6.0,57,0.00,,SCT,0.01,25.00,VWS V14.01,2013-08-18 00:34:00,
2013-08-17 19:40:00,74.4,58.7,30.08,WSW,246,5.0,6.0,58,0.00,,SCT,0.01,21.00,VWS V14.01,2013-08-18 00:40:00,
2013-08-17 19:45:00,74.0,58.3,30.08,WSW,242,3.0,5.0,58,0.00,,SCT,0.01,16.00,VWS V14.01,2013-08-18 00:45:00,
2013-08-17 19:50:00,73.6,57.9,30.08,SW,227,2.0,6.0,58,0.00,,SCT,0.01,12.00,VWS V14.01,2013-08-18 00:50:00,
2013-08-17 19:55:00,73.2,58.5,30.08,SW,234,4.0,4.0,60,0.00,,SCT,0.01,7.00,VWS V14.01,2013-08-18 00:55:00,
2013-08-17 20:00:00,72.9,57.8,30.07,SW,234,3.0,7.0,59,0.00,,SCT,0.01,7.00,VWS V14.01,2013-08-18 01:00:00,
2013-08-17 20:05:00,72.5,57.4,30.08,SW,232,5.0,6.0,59,0.00,,SCT,0.01,0.00,VWS V14.01,2013-08-18 01:05:00,
2013-08-17 20:10:00,72.1,57.5,30.08,WSW,241,3.0,4.0,60,0.00,,SCT,0.01,0.00,VWS V14.01,2013-08-18 01:10:00,
2013-08-17 20:15:00,71.8,58.1,30.08,SW,234,4.0,4.0,62,0.00,,SCT,0.01,0.00,VWS V14.01,2013-08-18 01:15:00,
2013-08-17 20:20:00,71.4,57.7,30.08,SW,228,3.0,6.0,62,0.00,,SCT,0.01,0.00,VWS V14.01,2013-08-18 01:20:00,
2013-08-17 20:25:00,71.1,57.4,30.08,SW,230,4.0,5.0,62,0.00,,SCT,0.01,0.00,VWS V14.01,2013-08-18 01:25:00,
2013-08-17 20:30:00,70.8,57.6,30.08,SW,234,2.0,5.0,63,0.00,,SCT,0.01,0.00,VWS V14.01,2013-08-18 01:30:00,
2013-08-17 20:35:00,70.5,57.3,30.08,SW,234,3.0,5.0,63,0.00,,SCT,0.01,0.00,VWS V14.01,2013-08-18 01:35:00,
2013-08-17 20:40:00,70.3,57.1,30.08,SW,225,0.0,5.0,63,0.00,,SCT,0.01,0.00,VWS V14.01,2013-08-18 01:40:00,
2013-08-17 20:45:00,70.0,56.8,30.08,SW,229,3.0,5.0,63,0.00,,SCT,0.01,0.00,VWS V14.01,2013-08-18 01:45:00,
2013-08-17 20:50:00,69.8,57.1,30.08,SSW,209,1.0,4.0,64,0.00,,SCT,0.01,0.00,VWS V14.01,2013-08-18 01:50:00,
2013-08-17 20:55:00,69.5,57.7,30.08,SW,222,3.0,5.0,66,0.00,,SCT,0.01,0.00,VWS V14.01,2013-08-18 01:55:00,
2013-08-17 21:00:00,69.2,57.8,30.08,SW,230,4.0,5.0,67,0.00,,SCT,0.01,0.00,VWS V14.01,2013-08-18 02:00:00,
2013-08-17 21:05:00,68.8,57.4,30.08,WSW,243,2.0,4.0,67,0.00,,SCT,0.01,0.00,VWS V14.01,2013-08-18 02:05:00,
2013-08-17 21:10:00,68.5,56.7,30.09,SW,226,0.0,5.0,66,0.00,,SCT,0.01,0.00,VWS V14.01,2013-08-18 02:10:00,
2013-08-17 21:15:00,68.3,56.9,30.09,SW,229,0.0,3.0,67,0.00,,SCT,0.01,0.00,VWS V14.01,2013-08-18 02:15:00,
2013-08-17 21:20:00,68.1,56.3,30.09,SW,229,0.0,3.0,66,0.00,,SCT,0.01,0.00,VWS V14.01,2013-08-18 02:20:00,
2013-08-17 21:25:00,67.9,56.1,30.09,SW,229,0.0,2.0,66,0.00,,SCT,0.01,0.00,VWS V14.01,2013-08-18 02:25:00,
2013-08-17 21:30:00,67.6,56.3,30.09,SW,221,3.0,4.0,67,0.00,,SCT,0.01,0.00,VWS V14.01,2013-08-18 02:30:00,
2013-08-17 21:35:00,67.2,55.9,30.09,SW,221,0.0,4.0,67,0.00,,SCT,0.01,0.00,VWS V14.01,2013-08-18 02:35:00,
2013-08-17 21:40:00,66.9,56.0,30.09,SW,221,0.0,3.0,68,0.00,,SCT,0.01,0.00,VWS V14.01,2013-08-18 02:40:00,
2013-08-17 21:45:00,66.5,56.0,30.09,SW,219,0.0,4.0,69,0.00,,SCT,0.01,0.00,VWS V14.01,2013-08-18 02:45:00,
2013-08-17 21:50:00,66.1,55.7,30.10,SW,219,0.0,1.0,69,0.00,,SCT,0.01,0.00,VWS V14.01,2013-08-18 02:50:00,
2013-08-17 21:55:00,65.7,55.7,30.09,SW,219,0.0,1.0,70,0.00,,SCT,0.01,0.00,VWS V14.01,2013-08-18 02:55:00,
2013-08-17 22:00:00,65.3,55.7,30.09,SW,219,0.0,0.0,71,0.00,,SCT,0.01,0.00,VWS V14.01,2013-08-18 03:00:00,
2013-08-17 22:05:00,65.0,55.4,30.10,SW,219,0.0,0.0,71,0.00,,SCT,0.01,0.00,VWS V14.01,2013-08-18 03:05:00,
2013-08-17 22:10:00,64.7,55.5,30.10,SW,219,0.0,0.0,72,0.00,,SCT,0.01,0.00,VWS V14.01,2013-08-18 03:10:00,
2013-08-17 22:15:00,64.4,55.6,30.09,SW,219,0.0,0.0,73,0.00,,SCT,0.01,0.00,VWS V14.01,2013-08-18 03:15:00,
2013-08-17 22:20:00,63.9,55.5,30.09,SW,219,0.0,0.0,74,0.00,,SCT,0.01,0.00,VWS V14.01,2013-08-18 03:20:00,
2013-08-17 22:25:00,63.6,55.5,30.10,SW,219,0.0,0.0,75,0.00,,SCT,0.01,0.00,VWS V14.01,2013-08-18 03:25:00,
2013-08-17 22:30:00,63.2,55.5,30.10,SW,219,0.0,0.0,76,0.00,,SCT,0.01,0.00,VWS V14.01,2013-08-18 03:30:00,
2013-08-17 22:35:00,62.9,55.2,30.10,SW,219,0.0,0.0,76,0.00,,SCT,0.01,0.00,VWS V14.01,2013-08-18 03:35:00,
2013-08-17 22:41:00,62.5,54.8,30.10,SW,219,0.0,0.0,76,0.00,,SCT,0.01,0.00,VWS V14.01,2013-08-18 03:41:00,
2013-08-17 22:46:00,62.2,54.9,30.10,SW,219,0.0,0.0,77,0.00,,SCT,0.01,0.00,VWS V14.01,2013-08-18 03:46:00,
2013-08-17 22:51:00,61.9,55.0,30.10,SW,219,0.0,0.0,78,0.00,,SCT,0.01,0.00,VWS V14.01,2013-08-18 03:51:00,
2013-08-17 22:56:00,61.5,54.6,30.10,SW,219,0.0,0.0,78,0.00,,SCT,0.01,0.00,VWS V14.01,2013-08-18 03:56:00,
2013-08-17 23:01:00,61.2,54.6,30.10,SW,219,0.0,0.0,79,0.00,,SCT,0.01,0.00,VWS V14.01,2013-08-18 04:01:00,
2013-08-17 23:02:00,61.1,54.5,30.10,SW,219,0.0,0.0,79,0.00,,SCT,0.01,0.00,VWS V14.01,2013-08-18 04:02:00,
2013-08-17 23:03:00,61.0,54.5,30.10,SW,219,0.0,0.0,79,0.00,,SCT,0.01,0.00,VWS V14.01,2013-08-18 04:03:00,
2013-08-17 23:04:00,60.9,54.3,30.10,SW,219,0.0,0.0,79,0.00,,SCT,0.01,0.00,VWS V14.01,2013-08-18 04:04:00,
2013-08-17 23:09:00,60.5,54.0,30.10,SSW,201,0.0,2.0,79,0.00,,SCT,0.01,0.00,VWS V14.01,2013-08-18 04:09:00,
2013-08-17 23:14:00,60.2,54.0,30.10,SSW,192,0.0,3.0,80,0.00,,SCT,0.01,0.00,VWS V14.01,2013-08-18 04:14:00,
2013-08-17 23:19:00,59.8,54.0,30.09,South,191,0.0,1.0,81,0.00,,SCT,0.01,0.00,VWS V14.01,2013-08-18 04:19:00,
2013-08-17 23:24:00,59.6,53.8,30.09,SSW,202,4.0,5.0,81,0.00,,SCT,0.01,0.00,VWS V14.01,2013-08-18 04:24:00,
2013-08-17 23:29:00,59.5,54.0,30.09,South,190,0.0,4.0,82,0.00,,SCT,0.01,0.00,VWS V14.01,2013-08-18 04:29:00,
2013-08-17 23:34:00,59.5,54.0,30.09,South,189,0.0,4.0,82,0.00,,SCT,0.01,0.00,VWS V14.01,2013-08-18 04:34:00,
2013-08-17 23:39:00,59.5,54.0,30.09,SSW,192,3.0,4.0,82,0.00,,SCT,0.01,0.00,VWS V14.01,2013-08-18 04:39:00,
2013-08-17 23:44:00,59.6,54.1,30.09,SSW,203,3.0,5.0,82,0.00,,SCT,0.01,0.00,VWS V14.01,2013-08-18 04:44:00,
2013-08-17 23:49:00,59.7,54.2,30.09,SSW,213,3.0,5.0,82,0.00,,SCT,0.01,0.00,VWS V14.01,2013-08-18 04:49:00,
2013-08-17 23:54:00,59.8,54.3,30.09,SW,214,3.0,5.0,82,0.00,,SCT,0.01,0.00,VWS V14.01,2013-08-18 04:54:00,
2013-08-17 23:59:00,59.9,54.1,30.08,SW,220,3.0,5.0,81,0.00,,SCT,0.01,0.00,VWS V14.01,2013-08-18 04:59:00,